| time (UTC) | temp F | wind direction | speed knots | gust knots | rain 1hr in | rain 24hr in | rain mn in | humidity % | barometer mb |
| 20260509013040 | 74 | 295 | 7.8 | 13.9 | 0.00 | 0.00 | 0.00 | 25 | 1014.0 |
| 20260509011530 | 75 | 303 | 10.4 | 14.8 | 0.00 | 0.00 | 0.00 | 25 | 1013.9 |
| 20260509010031 | 76 | 309 | 7.8 | 13.0 | 0.00 | 0.00 | 0.00 | 28 | 1013.9 |
| 20260509004535 | 76 | 309 | 9.6 | 13.9 | 0.00 | 0.00 | 0.00 | 27 | 1013.7 |
| 20260509003034 | 77 | 329 | 8.7 | 13.9 | 0.00 | 0.00 | 0.00 | 27 | 1013.6 |
| 20260509001532 | 77 | 306 | 8.7 | 14.8 | 0.00 | 0.00 | 0.00 | 24 | 1013.6 |
| 20260509000030 | 77 | 323 | 5.2 | 15.6 | 0.00 | 0.00 | 0.00 | 29 | 1013.3 |
| 20260508234532 | 75 | 243 | 6.1 | 14.8 | 0.00 | 0.00 | 0.00 | 33 | 1013.3 |
| 20260508233032 | 75 | 221 | 6.1 | 11.3 | 0.00 | 0.00 | 0.00 | 34 | 1013.5 |
| 20260508231533 | 74 | 223 | 8.7 | 13.9 | 0.00 | 0.00 | 0.00 | 36 | 1013.4 |
| 20260508230040 | 74 | 233 | 8.7 | 13.9 | 0.00 | 0.00 | 0.00 | 37 | 1013.6 |
| 20260508224532 | 74 | 211 | 7.0 | 14.8 | 0.00 | 0.00 | 0.00 | 44 | 1013.7 |
| 20260508223032 | 74 | 211 | 6.1 | 12.2 | 0.00 | 0.00 | 0.00 | 44 | 1013.8 |
| 20260508221530 | 74 | 223 | 7.8 | 14.8 | 0.00 | 0.00 | 0.00 | 41 | 1013.8 |
| 20260508220033 | 74 | 233 | 8.7 | 14.8 | 0.00 | 0.00 | 0.00 | 39 | 1013.8 |
| 20260508214535 | 73 | 220 | 7.0 | 11.3 | 0.00 | 0.00 | 0.00 | 41 | 1014.0 |
| 20260508213039 | 73 | 218 | 6.1 | 12.2 | 0.00 | 0.00 | 0.00 | 41 | 1014.0 |
| 20260508211538 | 70 | 202 | 6.1 | 9.6 | 0.00 | 0.00 | 0.00 | 47 | 1014.0 |
| 20260508210030 | 69 | 227 | 4.3 | 9.6 | 0.00 | 0.00 | 0.00 | 51 | 1014.2 |
| 20260508204538 | 70 | 225 | 4.3 | 7.8 | 0.00 | 0.00 | 0.00 | 43 | 1014.2 |
| 20260508203038 | 70 | 220 | 5.2 | 8.7 | 0.00 | 0.00 | 0.00 | 42 | 1014.2 |
| 20260508201536 | 69 | 209 | 5.2 | 7.8 | 0.00 | 0.00 | 0.00 | 47 | 1014.2 |
| 20260508200033 | 69 | 212 | 4.3 | 12.2 | 0.00 | 0.00 | 0.00 | 48 | 1014.4 |
| 20260508194536 | 71 | 240 | 4.3 | 10.4 | 0.00 | 0.00 | 0.00 | 43 | 1014.3 |
| 20260508193035 | 70 | 214 | 5.2 | 9.6 | 0.00 | 0.00 | 0.00 | 42 | 1014.3 |
| 20260508191534 | 69 | 223 | 5.2 | 10.4 | 0.00 | 0.00 | 0.00 | 47 | 1014.5 |
| 20260508190032 | 68 | 199 | 4.3 | 9.6 | 0.00 | 0.00 | 0.00 | 53 | 1014.6 |
| 20260508184533 | 68 | 239 | 5.2 | 10.4 | 0.00 | 0.00 | 0.00 | 49 | 1014.9 |
| 20260508183034 | 68 | 190 | 5.2 | 10.4 | 0.00 | 0.00 | 0.00 | 46 | 1014.8 |
| 20260508181543 | 66 | 226 | 5.2 | 8.7 | 0.00 | 0.00 | 0.00 | 49 | 1014.9 |
| 20260508180036 | 65 | 211 | 4.3 | 7.0 | 0.00 | 0.00 | 0.00 | 56 | 1014.9 |
| 20260508174532 | 63 | 203 | 2.6 | 6.1 | 0.00 | 0.00 | 0.00 | 63 | 1014.9 |
| 20260508173032 | 63 | 202 | 2.6 | 6.1 | 0.00 | 0.00 | 0.00 | 62 | 1015.1 |
| 20260508171531 | 62 | 202 | 4.3 | 7.0 | 0.00 | 0.00 | 0.00 | 60 | 1015.0 |
| 20260508170031 | 62 | 200 | 4.3 | 8.7 | 0.00 | 0.00 | 0.00 | 63 | 1014.8 |
| 20260508164530 | 61 | 210 | 4.3 | 8.7 | 0.00 | 0.00 | 0.00 | 64 | 1014.9 |
| 20260508163030 | 61 | 210 | 6.1 | 9.6 | 0.00 | 0.00 | 0.00 | 62 | 1014.8 |
| 20260508161532 | 60 | 166 | 5.2 | 7.8 | 0.00 | 0.00 | 0.00 | 66 | 1014.6 |
| 20260508160034 | 59 | 144 | 2.6 | 7.0 | 0.00 | 0.00 | 0.00 | 68 | 1014.5 |
| 20260508154546 | 58 | 138 | 0.9 | 3.5 | 0.00 | 0.00 | 0.00 | 69 | 1014.6 |
| 20260508153030 | 57 | 138 | 1.7 | 4.3 | 0.00 | 0.00 | 0.00 | 69 | 1014.4 |
| 20260508151536 | 55 | 0 | 0.9 | 2.6 | 0.00 | 0.00 | 0.00 | 72 | 1014.4 |
| 20260508150035 | 55 | 0 | 0.0 | 2.6 | 0.00 | 0.00 | 0.00 | 72 | 1014.3 |
| 20260508144533 | 55 | 0 | 0.0 | 2.6 | 0.00 | 0.00 | 0.00 | 68 | 1014.4 |
| 20260508143031 | 55 | 0 | 0.0 | 0.0 | 0.00 | 0.00 | 0.00 | 65 | 1014.2 |
| 20260508141534 | 55 | 0 | 0.0 | 3.5 | 0.00 | 0.00 | 0.00 | 64 | 1014.0 |
| 20260508140033 | 54 | 0 | 0.0 | 0.9 | 0.00 | 0.00 | 0.00 | 64 | 1013.8 |
| 20260508134539 | 52 | 0 | 0.0 | 0.0 | 0.00 | 0.00 | 0.00 | 66 | 1013.7 |
| 20260508133047 | 51 | 0 | 0.0 | 0.0 | 0.00 | 0.00 | 0.00 | 68 | 1013.6 |
| 20260508131534 | 50 | 0 | 0.0 | 0.0 | 0.00 | 0.00 | 0.00 | 68 | 1013.8 |
| 20260508130034 | 50 | 0 | 0.0 | 0.0 | 0.00 | 0.00 | 0.00 | 67 | 1013.5 |
| 20260508124536 | 50 | 0 | 0.0 | 0.0 | 0.00 | 0.00 | 0.00 | 67 | 1013.5 |
| 20260508123045 | 50 | 0 | 0.0 | 0.0 | 0.00 | 0.00 | 0.00 | 65 | 1013.3 |
| 20260508121534 | 51 | 0 | 0.0 | 2.6 | 0.00 | 0.00 | 0.00 | 64 | 1013.4 |
| 20260508120034 | 50 | 0 | 0.0 | 0.0 | 0.00 | 0.00 | 0.00 | 64 | 1013.4 |
| 20260508114532 | 50 | 0 | 0.0 | 0.0 | 0.00 | 0.00 | 0.00 | 63 | 1013.4 |
| 20260508113030 | 50 | 0 | 0.0 | 0.0 | 0.00 | 0.00 | 0.00 | 63 | 1013.3 |
| 20260508111537 | 50 | 0 | 0.0 | 0.0 | 0.00 | 0.00 | 0.00 | 64 | 1013.1 |
| 20260508110033 | 50 | 0 | 0.0 | 1.7 | 0.00 | 0.00 | 0.00 | 64 | 1013.1 |
| 20260508104532 | 51 | 0 | 0.0 | 0.9 | 0.00 | 0.00 | 0.00 | 62 | 1012.9 |
| 20260508103033 | 52 | 0 | 0.0 | 2.6 | 0.00 | 0.00 | 0.00 | 57 | 1012.7 |
| 20260508101552 | 52 | 0 | 0.0 | 2.6 | 0.00 | 0.00 | 0.00 | 58 | 1012.6 |
| 20260508100032 | 53 | 0 | 0.0 | 1.7 | 0.00 | 0.00 | 0.00 | 60 | 1012.7 |
| 20260508094530 | 53 | 0 | 0.0 | 0.0 | 0.00 | 0.00 | 0.00 | 60 | 1012.7 |
| 20260508093032 | 54 | 138 | 0.9 | 2.6 | 0.00 | 0.00 | 0.00 | 63 | 1012.6 |
| 20260508091532 | 55 | 0 | 0.0 | 1.7 | 0.00 | 0.00 | 0.00 | 64 | 1012.7 |
| 20260508090045 | 56 | 0 | 0.0 | 3.5 | 0.00 | 0.00 | 0.00 | 63 | 1012.8 |
| 20260508084530 | 56 | 138 | 1.7 | 2.6 | 0.00 | 0.00 | 0.00 | 62 | 1012.5 |
| 20260508083032 | 56 | 138 | 1.7 | 3.5 | 0.00 | 0.00 | 0.00 | 64 | 1012.4 |
| 20260508081535 | 55 | 0 | 0.0 | 0.0 | 0.00 | 0.00 | 0.00 | 63 | 1012.4 |
| 20260508080029 | 56 | 0 | 0.0 | 0.0 | 0.00 | 0.00 | 0.00 | 63 | 1012.4 |
| 20260508074532 | 57 | 0 | 0.0 | 0.0 | 0.00 | 0.00 | 0.00 | 60 | 1012.5 |
| 20260508073035 | 57 | 0 | 0.0 | 1.7 | 0.00 | 0.00 | 0.00 | 59 | 1012.4 |
| 20260508071530 | 58 | 0 | 0.0 | 0.0 | 0.00 | 0.00 | 0.00 | 59 | 1012.3 |
| 20260508070030 | 59 | 138 | 0.0 | 2.6 | 0.00 | 0.00 | 0.00 | 56 | 1012.2 |
| 20260508064531 | 60 | 0 | 0.0 | 0.0 | 0.00 | 0.00 | 0.00 | 56 | 1012.3 |
| 20260508063032 | 61 | 138 | 0.0 | 1.7 | 0.00 | 0.00 | 0.00 | 54 | 1012.3 |
| 20260508061537 | 61 | 0 | 0.0 | 2.6 | 0.00 | 0.00 | 0.00 | 53 | 1012.2 |
| 20260508060033 | 62 | 0 | 0.0 | 0.0 | 0.00 | 0.00 | 0.00 | 52 | 1012.1 |
| 20260508054535 | 62 | 0 | 0.0 | 0.0 | 0.00 | 0.00 | 0.00 | 52 | 1012.1 |
| 20260508053034 | 62 | 0 | 0.0 | 0.0 | 0.00 | 0.00 | 0.00 | 52 | 1012.0 |
| 20260508051531 | 63 | 0 | 0.0 | 0.0 | 0.00 | 0.00 | 0.00 | 49 | 1012.0 |
| 20260508050104 | 64 | 0 | 0.0 | 0.0 | 0.00 | 0.00 | 0.00 | 48 | 1012.0 |
| 20260508044532 | 65 | 0 | 0.0 | 0.0 | 0.00 | 0.00 | 0.00 | 47 | 1011.9 |
| 20260508043032 | 66 | 0 | 0.0 | 0.0 | 0.00 | 0.00 | 0.00 | 46 | 1011.9 |
| 20260508041530 | 66 | 0 | 0.0 | 0.0 | 0.00 | 0.00 | 0.00 | 46 | 1012.0 |
| 20260508040045 | 67 | 0 | 0.0 | 0.0 | 0.00 | 0.00 | 0.00 | 48 | 1012.0 |
| 20260508034541 | 68 | 0 | 0.0 | 0.0 | 0.00 | 0.00 | 0.00 | 46 | 1011.9 |
| 20260508033030 | 69 | 0 | 0.0 | 0.9 | 0.00 | 0.00 | 0.00 | 43 | 1011.8 |
| 20260508031535 | 69 | 0 | 0.0 | 2.6 | 0.00 | 0.00 | 0.00 | 44 | 1011.8 |
| 20260508030032 | 70 | 0 | 0.0 | 1.7 | 0.00 | 0.00 | 0.00 | 48 | 1011.8 |
| 20260508024558 | 70 | 0 | 0.0 | 0.0 | 0.00 | 0.00 | 0.00 | 51 | 1011.7 |
| 20260508023033 | 71 | 0 | 0.0 | 2.6 | 0.00 | 0.00 | 0.00 | 54 | 1011.8 |
| 20260508021534 | 72 | 0 | 0.0 | 2.6 | 0.00 | 0.00 | 0.00 | 51 | 1011.8 |
| 20260508020034 | 73 | 138 | 0.9 | 4.3 | 0.00 | 0.00 | 0.00 | 50 | 1011.8 |
| 20260508014536 | 74 | 138 | 1.7 | 4.3 | 0.00 | 0.00 | 0.00 | 45 | 1011.9 |